This demonstration page uses our WeatherBlox Daily Observations layout. Learn more.

Left ArrowRight Arrow

Hourly Observations for July 20, 2016

Temp ( °F °C ) Dew Point ( °F °C ) Humidity (%) Winds ( mph kmh ) Pressure ( in mb ) Visibility ( mi km ) Precip ( " mm )
12:53 am 00:53 Clear 78 25.6 66 18.9 67 67 S 9 15 29.98 1015 10 16 0.00 0.00
1:53 am 01:53 Clear 75 23.9 67 19.4 76 76 S 9 15 29.98 1015 10 16 0.00 0.00
2:53 am 02:53 Clear 73 22.8 67 19.4 81 81 S 9 15 29.99 1016 10 16 0.00 0.00
3:53 am 03:53 Clear 73 22.8 67 19.4 81 81 S 9 15 29.98 1015 10 16 0.00 0.00
4:53 am 04:53 Clear 72 22.2 66 18.9 82 82 S 8 13 29.98 1015 10 16 0.00 0.00
5:53 am 05:53 Clear 72 22.2 66 18.9 82 82 S 9 15 29.98 1015 10 16 0.00 0.00
6:53 am 06:53 Sunny 72 22.2 66 18.9 82 82 S 10 17 29.98 1015 10 16 0.00 0.00
7:53 am 07:53 Sunny 74 23.3 68 20 82 82 S 12 19 29.99 1016 10 16 0.00 0.00
8:53 am 08:53 Sunny 78 25.6 69 20.6 74 74 S 12 19 29.98 1015 10 16 0.00 0.00
9:53 am 09:53 Sunny 82 27.8 69 20.6 65 65 S 14 22 29.99 1016 10 16 0.00 0.00
10:53 am 10:53 Sunny 85 29.4 69 20.6 59 59 SSW 14 22 29.98 1015 10 16 0.00 0.00
11:53 am 11:53 Sunny 89 31.7 69 20.6 52 52 S 13 20 29.97 1015 10 16 0.00 0.00
12:53 pm 12:53 Sunny 92 33.3 70 21.1 49 49 SSE 13 20 29.96 1015 10 16 0.00 0.00
1:53 pm 13:53 Sunny 94 34.4 70 21.1 46 46 S 15 24 29.95 1014 10 16 0.00 0.00
2:53 pm 14:53 Sunny 96 35.6 69 20.6 41 41 S 17 28 29.92 1013 10 16 0.00 0.00
3:53 pm 15:53 Sunny 97 36.1 69 20.6 40 40 S 14 22 29.91 1013 10 16 0.00 0.00
4:53 pm 16:53 Sunny 98 36.7 69 20.6 39 39 S 13 20 29.89 1012 10 16 0.00 0.00
5:53 pm 17:53 Sunny 97 36 68 20 39 39 S 13 20 29.77 1008 10 16 0.00 0.00
6:53 pm 18:53 Sunny 95 35 67 19.4 40 40 S 13 20 29.88 1012 10 16 0.00 0.00
7:53 pm 19:53 Sunny 93 33.9 67 19.4 42 42 S 9 15 29.88 1012 10 16 0.00 0.00
8:53 pm 20:53 Sunny 89 31.7 66 18.9 47 47 S 10 17 29.88 1012 10 16 0.00 0.00
9:53 pm 21:53 Clear 86 30 65 18.3 49 49 S 9 15 29.89 1012 10 16 0.00 0.00
10:53 pm 22:53 Clear 83 28.3 66 18.9 57 57 S 10 17 29.91 1013 10 16 0.00 0.00
11:53 pm 23:53 Clear 82 27.8 67 19.4 60 60 S 9 15 29.91 1013 10 16 0.00 0.00

Powered by AerisWeather